Regional Weather Roundup
Issued by NWS

Home | Current Version | Previous Version | Graphics & Text | Print | Product List | Glossary On
Versions: 1 2 3 4 5 6 7 8 9 10 11 12 13 14 15 16 17 18 19 20 21 22 23 24 25 26 27 28 29 30 31 32 33 34 35 36 37 38 39 40 41 42 43 44 45 46 47 48 49 50
000
ASUS43 KFSD 192202
RWRSD

WEATHER ROUNDUP FOR SOUTH DAKOTA
NATIONAL WEATHER SERVICE SIOUX FALLS SD
400 PM CST FRI JAN 19 2018

NOTE: "FAIR" INDICATES FEW OR NO CLOUDS BELOW 12,000 FEET WITH NO
SIGNIFICANT WEATHER AND/OR OBSTRUCTIONS TO VISIBILITY.


SDZ001>005-009-010-012>017-192300-
NORTHWEST AND NORTH CENTRAL SOUTH DAKOTA

CITY           SKY/WX    TMP DP  RH WIND       PRES   REMARKS
BUFFALO          N/A     37  33  85 W8        29.61F
FAITH            N/A     41  34  76 NW9       29.67R
MOBRIDGE       SUNNY     47  33  58 NW10      29.62R
$$

SDZ012>016-024>037-041>051-057-063-072>074-192300-
SOUTHWEST AND SOUTH CENTRAL SOUTH DAKOTA

CITY           SKY/WX    TMP DP  RH WIND       PRES   REMARKS
RAPID CTY ARPT CLOUDY    46  31  55 N8        29.69R
PIERRE         CLOUDY    46  33  60 NW13      29.66R
CUSTER         PTSUNNY   46  23  40 W8        29.66S
ELLSWORTH AFB  PTSUNNY   44  32  62 N8        29.69R
PHILIP         CLOUDY    45  34  65 NW7       29.68S
SPEARFISH        N/A     43  32  65 E3        29.69R
WINNER         FAIR      46  34  62 NW9       29.67R
$$

SDZ004>011-016>023-039-040-192300-
NORTHEAST SOUTH DAKOTA

CITY           SKY/WX    TMP DP  RH WIND       PRES   REMARKS
ABERDEEN       PTSUNNY   47  31  53 NW13      29.61R
WATERTOWN      MOSUNNY   45  29  53 NW9       29.57R
BROOKINGS      CLOUDY    43  32  65 NW9       29.58R
SISSETON         N/A     47  29  49 NW13G23   29.57R
$$

SDZ017-020-022-023-036>040-048>070-192300-
SOUTHEAST SOUTH DAKOTA

CITY           SKY/WX    TMP DP  RH WIND       PRES   REMARKS
SIOUX FALLS    CLOUDY    42  34  73 NW12      29.59R
HURON          PTSUNNY   46  33  60 NW7       29.62R
CHAMBERLAIN    CLOUDY    44  35  69 W6        29.66R
MITCHELL       CLOUDY    45  35  68 NW8       29.63R
YANKTON        CLOUDY    49  34  56 NW17      29.62R
$$

ABBREVIATIONS USED IN REMARKS
   TC - TEMPERATURE IN CELSIUS
  WCI - WIND CHILL INDEX
   HX - HEAT INDEX
  VSB - VISIBILITY




USA.gov is the U.S. government's official web portal to all federal, state and local government web resources and services.